Simultaneous Nadir Overpasses (SNOs) Predictions

Prediction of SNOs between METOP-C and LANDSAT-8 Satellite Orbit:

Table of predicted SNOs for the next 14.0 days since TLE Epoch: 3/11/2023
Index Date (METOP-C) Time (METOP-C) Lat,Lon (METOP-C) SZA (METOP-C ) Date (LANDSAT-8) Time (LANDSAT-8) Lat,Lon (LANDSAT-8) SZA (LANDSAT-8 ) Distance(km) Time Diff (sec)
1 03/13/2023 18:20:07 81.12, -55.43 85.70 03/13/2023 18:20:20 81.12, -55.61 85.69 2.97 13
2 03/13/2023 19:10:48 -81.14, 112.26 94.27 03/13/2023 19:09:46 -81.14, 112.33 94.29 1.20 62
3 03/16/2023 13:54:28 81.10, 10.45 84.55 03/16/2023 13:54:35 81.10, 10.57 84.56 2.10 7
4 03/16/2023 14:45:08 -81.13, 178.51 95.38 03/16/2023 14:44:01 -81.13, 178.52 95.41 0.61 67
5 03/19/2023 08:38:22 -80.85, -96.07 97.23 03/19/2023 08:39:36 -80.72, -95.67 97.29 16.37 74
6 03/19/2023 09:28:45 81.12, 77.31 83.52 03/19/2023 09:28:47 81.12, 77.21 83.50 1.64 2
7 03/19/2023 10:19:25 -81.15,-114.64 96.42 03/19/2023 10:18:13 -81.14,-114.81 96.46 2.94 72
8 03/22/2023 04:12:26 -81.10, -24.29 97.65 03/22/2023 04:13:35 -81.09, -24.41 97.64 2.10 69
9 03/22/2023 05:03:04 81.12, 143.65 82.42 03/22/2023 05:03:00 81.11, 143.60 82.41 0.86 4
10 03/24/2023 23:46:44 -81.10, 42.25 98.72 03/24/2023 23:47:47 -81.10, 42.11 98.71 2.48 63



Historial Predications of SNOs between METOP-C and LANDSAT-8
